Atlanta, GA

5:45 AM EDT on May 25, 2018 (GMT -0400)
The Hartsfield Atlanta International

Weather History for KATL - November, 2012

Change the Weather History Date:

Tuesday, November 13, 2012

  Actual Average Record
Temperature  
Mean Temperature 47 °F 55 °F  
Max Temperature 58 °F 65 °F 79 °F (1938)
Min Temperature 35 °F 45 °F 21 °F (1911)
Degree Days  
Heating Degree Days 18 10  
Month to date heating degree days 135 113  
Since 1 July heating degree days 233 242  
Cooling Degree Days 0 0  
Month to date cooling degree days 0 11  
Year to date cooling degree days 2240 1883  
Moisture  
Dew Point 32 °F    
Average Humidity 63    
Maximum Humidity 89    
Minimum Humidity 36    
Precipitation  
Precipitation 0.00 in 0.14 in 1.04 in (1882)
Month to date precipitation 1.57 1.62  
Year to date precipitation 31.00 43.33  
Snow  
Snow 0.00 in 0.00 in 0.00 in (2002)
Month to date snowfall 0.0 0.0  
Since 1 July snowfall 0.0 0.0  
Since 1 September snowfall 0.0 0.0  
Snow Depth -    
Sea Level Pressure  
Sea Level Pressure 30.29 in    
Wind  
Wind Speed 11 mph (NNW)    
Max Wind Speed 20 mph    
Max Gust Speed 24 mph    
Visibility 10 miles    
Events      
T = Trace of Precipitation, MM = Missing Value Source: NWS Daily Summary

Daily Weather History Graph

Daily Weather History Graph

Search for Another Location

Airport or City:

Astronomy

Nov. 13, 2012 Rise Set
Actual Time 7:08 AM EST 5:35 PM EST
Civil Twilight 6:41 AM EST 6:02 PM EST
Nautical Twilight 6:11 AM EST 6:32 PM EST
Astronomical Twilight 5:42 AM EST 7:01 PM EST
Moon 6:44 AM EST (11/13) 5:29 PM EST (11/13)
Length of Visible Light 11h 20m
Length of Day
10h 27m
Waning Crescent, 0% of the Moon is Illuminated
Nov 13
Waning Crescent
Nov 13
New
Nov 20
First Quarter
Nov 28
Full
Dec 6
Last Quarter

Hourly Weather History & Observations

Time (EST) Temp. Windchill Dew Point Humidity Pressure Visibility Wind Dir Wind Speed Gust Speed Precip Events Conditions
12:52 AM 46.0 °F 40.2 °F 41.0 °F 83% 30.26 in 10.0 mi NNW 12.7 mph 20.7 mph N/A   Mostly Cloudy
1:52 AM 44.1 °F 37.4 °F 36.0 °F 73% 30.25 in 10.0 mi NNW 13.8 mph - N/A   Overcast
2:52 AM 42.1 °F 33.9 °F 35.1 °F 76% 30.25 in 10.0 mi NNW 17.3 mph - N/A   Overcast
3:52 AM 41.0 °F 33.9 °F 34.0 °F 76% 30.26 in 10.0 mi NW 12.7 mph - N/A   Overcast
4:52 AM 37.0 °F 30.4 °F 32.0 °F 82% 30.26 in 10.0 mi NW 9.2 mph - N/A   Scattered Clouds
5:52 AM 36.0 °F 27.1 °F 32.0 °F 86% 30.27 in 10.0 mi NW 13.8 mph - N/A   Clear
6:52 AM 35.1 °F 27.4 °F 30.9 °F 85% 30.29 in 10.0 mi NW 10.4 mph - N/A   Partly Cloudy
7:52 AM 36.0 °F 28.5 °F 30.0 °F 79% 30.31 in 10.0 mi NNW 10.4 mph - N/A   Clear
8:52 AM 39.9 °F 33.9 °F 30.0 °F 68% 30.33 in 10.0 mi NNW 9.2 mph - N/A   Clear
9:52 AM 44.1 °F 37.7 °F 28.9 °F 55% 30.33 in 10.0 mi NNW 12.7 mph - N/A   Partly Cloudy
10:52 AM 48.0 °F - 30.0 °F 50% 30.33 in 10.0 mi NW 13.8 mph - N/A   Partly Cloudy
11:52 AM 51.1 °F - 28.9 °F 43% 30.32 in 10.0 mi North 10.4 mph - N/A   Scattered Clouds
12:52 PM 54.0 °F - 28.9 °F 38% 30.28 in 10.0 mi NNW 13.8 mph - N/A   Clear
1:52 PM 57.0 °F - 30.0 °F 36% 30.26 in 10.0 mi North 12.7 mph - N/A   Partly Cloudy
2:52 PM 57.0 °F - 30.9 °F 37% 30.26 in 10.0 mi NW 9.2 mph - N/A   Clear
3:52 PM 57.0 °F - 30.0 °F 36% 30.25 in 10.0 mi NNW 10.4 mph - N/A   Clear
4:52 PM 55.0 °F - 30.9 °F 40% 30.27 in 10.0 mi NNW 10.4 mph - N/A   Clear
5:52 PM 51.1 °F - 30.9 °F 46% 30.27 in 10.0 mi NW 9.2 mph - N/A   Partly Cloudy
6:52 PM 48.9 °F - 30.0 °F 48% 30.29 in 10.0 mi NNW 8.1 mph - N/A   Clear
7:52 PM 46.9 °F - 28.9 °F 50% 30.30 in 10.0 mi NNW 9.2 mph - N/A   Clear
8:52 PM 45.0 °F 41.8 °F 30.0 °F 56% 30.31 in 10.0 mi NNW 5.8 mph - N/A   Clear
9:52 PM 43.0 °F 39.5 °F 30.0 °F 60% 30.32 in 10.0 mi NNW 5.8 mph - N/A   Clear
10:52 PM 44.1 °F 40.8 °F 30.0 °F 58% 30.32 in 10.0 mi Variable 5.8 mph - N/A   Partly Cloudy
11:52 PM 45.0 °F 40.6 °F 33.1 °F 63% 30.31 in 10.0 mi NE 8.1 mph - N/A   Scattered Clouds